GW1800 Weather Reports


time (UTC)temp
F
wind
direction
speed
knots
gust
knots
rain 1hr
in
rain 24hr
in
rain mn
in
humidity
%
barometer
mb
20260902232321 91 195 0.9 1.7 0.00 0.00 0.00 62 999.8
20260902231815 91 196 0.9 0.9 0.00 0.00 0.00 61 999.8
20260902231310 92 196 0.9 0.9 0.00 0.00 0.00 61 1000.0
20260902230805 92 195 0.9 0.9 0.00 0.00 0.00 59 999.7
20260902230304 92 189 0.9 0.9 0.00 0.00 0.00 59 999.9
20260902225759 93 241 2.6 4.3 0.00 0.00 0.00 58 999.7
20260902225254 93 206 0.9 1.7 0.00 0.00 0.00 58 999.9
20260902224752 93 211 0.9 1.7 0.00 0.00 0.00 57 999.9
20260902224248 93 182 0.9 0.9 0.00 0.00 0.00 57 1000.0
20260902223744 93 289 2.6 2.6 0.00 0.00 0.00 57 999.9
20260902223243 94 234 2.6 2.6 0.00 0.00 0.00 57 999.8
20260902222742 94 238 2.6 4.3 0.00 0.00 0.00 56 999.9
20260902222236 94 252 1.7 1.7 0.00 0.00 0.00 56 999.9
20260902221731 93 216 2.6 2.6 0.00 0.00 0.00 56 1000.1
20260902221230 94 248 5.2 7.0 0.00 0.00 0.00 55 1000.0
20260902220725 94 210 2.6 2.6 0.00 0.00 0.00 56 999.9
20260902220220 94 210 0.9 0.9 0.00 0.00 0.00 55 1000.0
20260902215715 95 175 3.5 5.2 0.00 0.00 0.00 55 1000.0
20260902215211 94 193 4.3 6.1 0.00 0.00 0.00 55 999.9
20260902214706 94 203 2.6 4.3 0.00 0.00 0.00 56 999.9
20260902214205 94 237 4.3 6.1 0.00 0.00 0.00 55 1000.0
20260902213701 95 201 5.2 7.0 0.00 0.00 0.00 56 1000.1
20260902213155 95 219 4.3 5.2 0.00 0.00 0.00 54 1000.1
20260902212650 95 172 3.5 4.3 0.00 0.00 0.00 54 1000.0
20260902212146 95 226 3.5 4.3 0.00 0.00 0.00 54 1000.0
20260902211642 94 254 3.5 4.3 0.00 0.00 0.00 55 1000.1
20260902211137 94 233 7.8 8.7 0.00 0.00 0.00 54 1000.0
20260902210636 96 207 2.6 4.3 0.00 0.00 0.00 54 1000.0
20260902210132 95 209 1.7 2.6 0.00 0.00 0.00 54 1000.1
20260902205630 95 234 2.6 2.6 0.00 0.00 0.00 55 1000.1
20260902205125 95 264 2.6 2.6 0.00 0.00 0.00 55 1000.2
20260902204620 95 265 2.6 4.3 0.00 0.00 0.00 55 1000.3
20260902204115 95 205 0.9 0.9 0.00 0.00 0.00 56 1000.3
20260902203610 94 213 3.5 4.3 0.00 0.00 0.00 54 1000.4
20260902203110 95 233 3.5 5.2 0.00 0.00 0.00 54 1000.3
20260902202605 95 172 6.1 7.0 0.00 0.00 0.00 54 1000.5
20260902202102 95 202 1.7 2.6 0.00 0.00 0.00 55 1000.5
20260902201552 95 197 2.6 4.3 0.00 0.00 0.00 54 1000.4
20260902201051 95 219 2.6 2.6 0.00 0.00 0.00 53 1000.3
20260902200546 96 280 3.5 5.2 0.00 0.00 0.00 54 1000.4
20260902200042 95 224 2.6 4.3 0.00 0.00 0.00 55 1000.4
20260902195538 96 228 3.5 5.2 0.00 0.00 0.00 54 1000.6
20260902195036 95 203 1.7 1.7 0.00 0.00 0.00 54 1000.6
20260902194530 95 224 7.0 9.6 0.00 0.00 0.00 54 1000.7
20260902194026 94 212 2.6 4.3 0.00 0.00 0.00 56 1000.7
20260902193522 95 222 5.2 7.0 0.00 0.00 0.00 54 1000.9
20260902193021 94 264 2.6 2.6 0.00 0.00 0.00 55 1000.7
20260902192520 95 227 4.3 5.2 0.00 0.00 0.00 54 1001.0
20260902192019 95 202 3.5 4.3 0.00 0.00 0.00 55 1000.9
20260902191515 95 235 2.6 2.6 0.00 0.00 0.00 55 1000.9
20260902191009 95 205 1.7 1.7 0.00 0.00 0.00 54 1001.0
20260902190504 94 213 2.6 2.6 0.00 0.00 0.00 56 1000.9
20260902185959 95 236 3.5 4.3 0.00 0.00 0.00 55 1001.0
20260902185456 94 261 4.3 6.1 0.00 0.00 0.00 57 1001.1
20260902184950 95 253 2.6 4.3 0.00 0.00 0.00 57 1001.3
20260902184446 95 217 2.6 2.6 0.00 0.00 0.00 56 1001.3
20260902183941 94 260 2.6 2.6 0.00 0.00 0.00 56 1001.3
20260902183438 92 215 1.7 1.7 0.00 0.00 0.00 59 1001.2
20260902182933 94 182 1.7 2.6 0.00 0.00 0.00 56 1001.5
20260902182429 94 288 4.3 6.1 0.00 0.00 0.00 56 1001.3
20260902181925 94 309 4.3 5.2 0.00 0.00 0.00 57 1001.3
20260902181420 95 228 7.8 11.3 0.00 0.00 0.00 56 1001.4
20260902180915 93 200 0.9 0.9 0.00 0.00 0.00 57 1001.5
20260902180410 93 264 3.5 4.3 0.00 0.00 0.00 59 1001.6
20260902175906 94 212 2.6 2.6 0.00 0.00 0.00 57 1001.5
20260902175401 94 276 3.5 4.3 0.00 0.00 0.00 60 1001.6
20260902174856 94 215 2.6 4.3 0.00 0.00 0.00 58 1001.5
20260902174353 93 247 1.7 4.3 0.00 0.00 0.00 59 1001.5
20260902173843 93 283 2.6 2.6 0.00 0.00 0.00 60 1001.8
20260902173342 93 231 2.6 4.3 0.00 0.00 0.00 58 1001.5
20260902172837 93 225 3.5 5.2 0.00 0.00 0.00 59 1001.8
20260902172336 93 211 2.6 2.6 0.00 0.00 0.00 59 1001.7
20260902171832 93 216 2.6 4.3 0.00 0.00 0.00 61 1001.9
20260902171327 92 240 2.6 2.6 0.00 0.00 0.00 61 1002.0
20260902170823 92 236 4.3 6.1 0.00 0.00 0.00 62 1002.0
20260902170318 92 273 2.6 2.6 0.00 0.00 0.00 62 1002.1
20260902165808 92 231 2.6 2.6 0.00 0.00 0.00 63 1001.9
20260902165309 92 281 2.6 4.3 0.00 0.00 0.00 65 1002.0
20260902164802 92 205 2.6 2.6 0.00 0.00 0.00 63 1002.0
20260902164257 91 195 3.5 5.2 0.00 0.00 0.00 64 1002.2
20260902163751 91 261 3.5 5.2 0.00 0.00 0.00 64 1002.2
20260902163245 91 235 3.5 5.2 0.00 0.00 0.00 65 1002.1
20260902162744 91 204 3.5 5.2 0.00 0.00 0.00 65 1002.2
20260902162239 91 217 4.3 5.2 0.00 0.00 0.00 64 1002.2
20260902161734 90 202 0.9 0.9 0.00 0.00 0.00 67 1002.2
20260902161229 90 288 4.3 5.2 0.00 0.00 0.00 65 1002.4
20260902160726 90 178 1.7 1.7 0.00 0.00 0.00 66 1002.2
20260902160220 90 196 2.6 5.2 0.00 0.00 0.00 67 1002.5
20260902155718 90 199 1.7 2.6 0.00 0.00 0.00 67 1002.6
20260902155217 90 232 2.6 2.6 0.00 0.00 0.00 66 1002.5
20260902154712 90 238 2.6 2.6 0.00 0.00 0.00 68 1002.7
20260902154207 90 249 6.1 7.8 0.00 0.00 0.00 66 1002.5
20260902153706 89 198 0.9 0.9 0.00 0.00 0.00 69 1002.6
20260902153201 89 185 0.9 0.9 0.00 0.00 0.00 70 1002.5
20260902152657 89 219 3.5 5.2 0.00 0.00 0.00 69 1002.6
20260902152152 89 285 3.5 4.3 0.00 0.00 0.00 69 1002.6
20260902151648 89 223 1.7 2.6 0.00 0.00 0.00 70 1002.6
20260902151143 88 275 2.6 2.6 0.00 0.00 0.00 70 1002.5
20260902150638 88 236 0.9 1.7 0.00 0.00 0.00 71 1002.5
20260902150133 88 209 1.7 1.7 0.00 0.00 0.00 73 1002.4
20260902145633 87 253 1.7 1.7 0.00 0.00 0.00 73 1002.5
20260902145132 87 245 3.5 4.3 0.00 0.00 0.00 74 1002.5
20260902144629 87 187 2.6 2.6 0.00 0.00 0.00 74 1002.7
20260902144124 86 216 2.6 2.6 0.00 0.00 0.00 74 1002.5
20260902143619 86 207 2.6 2.6 0.00 0.00 0.00 75 1002.6
20260902143115 85 248 2.6 2.6 0.00 0.00 0.00 77 1002.5
20260902142610 84 206 2.6 2.6 0.00 0.00 0.00 77 1002.6
20260902142106 84 212 4.3 5.2 0.00 0.00 0.00 77 1002.5
20260902141605 84 194 2.6 4.3 0.00 0.00 0.00 77 1002.6
20260902141101 84 261 1.7 1.7 0.00 0.00 0.00 77 1002.6
20260902140555 84 247 1.7 2.6 0.00 0.00 0.00 77 1002.4
20260902140051 84 211 1.7 1.7 0.00 0.00 0.00 78 1002.5
20260902135550 83 210 0.9 0.9 0.00 0.00 0.00 80 1002.5
20260902135045 82 171 1.7 1.7 0.00 0.00 0.00 81 1002.6
20260902134541 82 296 1.7 2.6 0.00 0.00 0.00 80 1002.5
20260902134041 82 191 1.7 1.7 0.00 0.00 0.00 81 1002.5
20260902133536 81 182 0.9 1.7 0.00 0.00 0.00 82 1002.6
20260902133035 81 191 1.7 1.7 0.00 0.00 0.00 82 1002.5
20260902132531 80 214 4.3 5.2 0.00 0.00 0.00 83 1002.5
20260902132027 80 194 0.9 0.9 0.00 0.00 0.00 85 1002.9
20260902131523 79 215 1.7 1.7 0.00 0.00 0.00 86 1002.7
20260902131022 78 208 3.5 4.3 0.00 0.00 0.00 86 1002.5
20260902130518 78 212 1.7 1.7 0.00 0.00 0.00 86 1002.7
20260902130013 78 197 0.9 0.9 0.00 0.00 0.00 87 1002.6
20260902125509 78 201 2.6 2.6 0.00 0.00 0.00 87 1002.6
20260902125004 78 203 0.9 1.7 0.00 0.00 0.00 88 1002.6
20260902124501 77 182 1.7 1.7 0.00 0.00 0.00 88 1002.5
20260902123955 77 212 0.9 1.7 0.00 0.00 0.00 88 1002.5
20260902123452 77 189 0.9 0.9 0.00 0.00 0.00 89 1002.5
20260902122950 77 195 1.7 1.7 0.00 0.00 0.00 89 1002.3
20260902122446 76 189 0.9 0.9 0.00 0.00 0.00 90 1002.3
20260902121942 76 197 0.9 0.9 0.00 0.00 0.00 90 1002.1
20260902121442 75 182 0.9 0.9 0.00 0.00 0.00 93 1002.1
20260902120936 74 254 0.0 0.0 0.00 0.00 0.00 96 1002.2
20260902120433 73 192 0.0 0.0 0.00 0.00 0.00 98 1002.0
20260902115932 72 192 0.0 0.0 0.00 0.00 0.00 99 1002.1
20260902115428 72 192 0.0 0.0 0.00 0.00 0.00 99 1002.1
20260902114925 71 192 0.0 0.0 0.00 0.00 0.00 99 1002.0
20260902114420 71 192 0.0 0.0 0.00 0.00 0.00 99 1002.0
20260902113915 71 192 0.0 0.0 0.00 0.00 0.00 99 1002.0
20260902113411 70 192 0.0 0.0 0.00 0.00 0.00 99 1001.8
20260902112910 70 192 0.0 0.0 0.00 0.00 0.00 99 1001.9
20260902112407 71 192 0.0 0.0 0.00 0.00 0.00 99 1001.7
20260902111902 71 192 0.0 0.0 0.00 0.00 0.00 99 1001.8
20260902111359 71 192 0.0 0.0 0.00 0.00 0.00 99 1001.8
20260902110854 71 192 0.0 0.0 0.00 0.00 0.00 99 1001.8
20260902110350 71 192 0.0 0.0 0.00 0.00 0.00 99 1001.7
20260902105850 70 192 0.0 0.0 0.00 0.00 0.00 99 1001.6
20260902105344 71 192 0.0 0.0 0.00 0.00 0.00 99 1001.7
20260902104840 71 192 0.0 0.0 0.00 0.00 0.00 99 1001.6
20260902104336 71 192 0.0 0.0 0.00 0.00 0.00 99 1001.6
20260902103835 71 192 0.0 0.0 0.00 0.00 0.00 99 1001.5
20260902103331 71 192 0.0 0.0 0.00 0.00 0.00 99 1001.6
20260902102825 71 192 0.0 0.0 0.00 0.00 0.00 99 1001.5
20260902102324 71 192 0.0 0.0 0.00 0.00 0.00 99 1001.4
20260902101818 71 192 0.0 0.0 0.00 0.00 0.00 99 1001.7
20260902101313 71 192 0.0 0.0 0.00 0.00 0.00 99 1001.8
20260902100812 71 192 0.0 0.0 0.00 0.00 0.00 99 1001.4
20260902100306 71 192 0.0 0.0 0.00 0.00 0.00 99 1001.6
20260902095801 71 192 0.0 0.0 0.00 0.00 0.00 99 1001.5
20260902095256 71 192 0.0 0.0 0.00 0.00 0.00 99 1001.5
20260902094750 71 192 0.0 0.0 0.00 0.00 0.00 99 1001.4
20260902094247 72 192 0.0 0.0 0.00 0.00 0.00 99 1001.3
20260902093746 72 192 0.0 0.0 0.00 0.00 0.00 99 1001.4
20260902093241 72 192 0.0 0.0 0.00 0.00 0.00 99 1001.3
20260902092740 71 192 0.0 0.0 0.00 0.00 0.00 99 1001.5
20260902092236 71 192 0.0 0.0 0.00 0.00 0.00 99 1001.5
20260902091735 71 192 0.0 0.0 0.00 0.00 0.00 99 1001.4
20260902091232 71 192 0.0 0.0 0.00 0.00 0.00 99 1001.4
20260902090728 71 192 0.0 0.0 0.00 0.00 0.00 99 1001.3
20260902090227 71 192 0.0 0.0 0.00 0.00 0.00 99 1001.2
20260902085721 71 192 0.0 0.0 0.00 0.00 0.00 98 1001.2
20260902085217 72 192 0.0 0.0 0.00 0.00 0.00 98 1001.2
20260902084713 72 192 0.0 0.0 0.00 0.00 0.00 98 1001.0
20260902084209 71 192 0.0 0.0 0.00 0.00 0.00 98 1001.0
20260902083703 71 192 0.0 0.0 0.00 0.00 0.00 98 1000.9
20260902083203 72 192 0.0 0.0 0.00 0.00 0.00 98 1000.8
20260902082658 72 192 0.0 0.0 0.00 0.00 0.00 98 1001.0
20260902082155 72 192 0.0 0.0 0.00 0.00 0.00 98 1000.9
20260902081651 72 192 0.0 0.0 0.00 0.00 0.00 98 1000.8
20260902081146 72 192 0.0 0.0 0.00 0.00 0.00 98 1000.8
20260902080641 72 192 0.0 0.0 0.00 0.00 0.00 98 1000.8
20260902080138 72 192 0.0 0.0 0.00 0.00 0.00 97 1000.9
20260902075637 72 192 0.0 0.0 0.00 0.00 0.00 97 1000.7
20260902075134 73 192 0.0 0.0 0.00 0.00 0.00 96 1000.8
20260902074634 73 192 0.0 0.0 0.00 0.00 0.00 96 1000.8
20260902074129 73 192 0.0 0.0 0.00 0.00 0.00 96 1000.8
20260902073624 73 192 0.0 0.0 0.00 0.00 0.00 95 1000.8
20260902073121 73 192 0.0 0.0 0.00 0.00 0.00 95 1000.7
20260902072616 74 192 0.0 0.0 0.00 0.00 0.00 95 1000.8
20260902072113 74 192 0.0 0.0 0.00 0.00 0.00 95 1000.7
20260902071607 73 192 0.0 0.0 0.00 0.00 0.00 95 1000.8
20260902071103 74 192 0.0 0.0 0.00 0.00 0.00 95 1000.7
20260902070558 74 192 0.0 0.0 0.00 0.00 0.00 95 1000.9
20260902070053 73 192 0.0 0.0 0.00 0.00 0.00 95 1000.7
20260902065547 73 192 0.0 0.0 0.00 0.00 0.00 96 1000.8
20260902065042 73 192 0.0 0.0 0.00 0.00 0.00 96 1000.7
20260902064538 73 192 0.0 0.0 0.00 0.00 0.00 96 1000.8
20260902064034 73 192 0.0 0.0 0.00 0.00 0.00 96 1000.9
20260902063533 73 192 0.0 0.0 0.00 0.00 0.00 96 1000.8
20260902063028 73 192 0.0 0.0 0.00 0.00 0.00 95 1000.9
20260902062526 73 192 0.0 0.0 0.00 0.00 0.00 95 1000.8
20260902062022 73 192 0.0 0.0 0.00 0.00 0.00 95 1000.9
20260902061517 73 192 0.0 0.0 0.00 0.00 0.00 95 1001.0
20260902061013 73 192 0.0 0.0 0.00 0.00 0.00 95 1000.8
20260902060509 74 192 0.0 0.0 0.00 0.00 0.00 94 1000.9
20260902060005 74 192 0.0 0.0 0.00 0.00 0.00 94 1000.8
20260902055501 74 192 0.0 0.0 0.00 0.00 0.00 94 1001.0
20260902054955 74 192 0.0 0.0 0.00 0.00 0.00 93 1000.9
20260902054450 74 192 0.0 0.0 0.00 0.00 0.00 93 1001.0
20260902053946 74 192 0.0 0.0 0.00 0.00 0.00 93 1000.9
20260902053441 74 192 0.0 0.0 0.00 0.00 0.00 93 1000.8
20260902052940 75 192 0.0 0.0 0.00 0.00 0.00 92 1000.9
20260902052435 75 192 0.0 0.0 0.00 0.00 0.00 92 1000.9
20260902051930 75 192 0.0 0.0 0.00 0.00 0.00 92 1000.9
20260902051425 75 192 0.0 0.0 0.00 0.00 0.00 92 1000.9
20260902050924 75 192 0.0 0.0 0.00 0.00 0.00 92 1000.9
20260902050423 75 192 0.0 0.0 0.00 0.00 0.00 92 1001.0
20260902045919 75 192 0.0 0.0 0.00 0.00 0.00 92 1001.0
20260902045414 75 192 0.0 0.0 0.00 0.00 0.00 91 1000.9
20260902044910 75 192 0.0 0.0 0.00 0.00 0.00 91 1000.7
20260902044406 75 192 0.0 0.0 0.00 0.00 0.00 91 1000.9
20260902043901 75 192 0.0 0.0 0.00 0.00 0.00 91 1001.0
20260902043356 75 192 0.0 0.0 0.00 0.00 0.00 90 1000.8
20260902042851 76 192 0.0 0.0 0.00 0.00 0.00 90 1001.0
20260902042350 76 192 0.0 0.0 0.00 0.00 0.00 89 1000.9
20260902041846 76 192 0.0 0.0 0.00 0.00 0.00 89 1000.9
20260902041346 77 192 0.0 0.0 0.00 0.00 0.00 88 1001.1
20260902040845 77 192 0.0 0.0 0.00 0.00 0.00 88 1000.9
20260902040340 77 192 0.0 0.0 0.00 0.00 0.00 87 1000.9
20260902035838 77 192 0.0 0.0 0.00 0.00 0.00 87 1000.8
20260902035334 77 192 0.0 0.0 0.00 0.00 0.00 86 1000.9
20260902034833 78 192 0.0 0.0 0.00 0.00 0.00 86 1000.9
20260902034329 78 192 0.0 0.0 0.00 0.00 0.00 85 1000.8
20260902033826 78 192 0.0 0.0 0.00 0.00 0.00 85 1001.0
20260902033322 78 192 0.0 0.0 0.00 0.00 0.00 85 1000.8
20260902032821 78 192 0.0 0.0 0.00 0.00 0.00 85 1000.9
20260902032315 78 192 0.0 0.0 0.00 0.00 0.00 85 1000.9
20260902031815 78 192 0.0 0.0 0.00 0.00 0.00 85 1000.8
20260902031312 78 192 0.0 0.0 0.00 0.00 0.00 85 1000.7
20260902030807 78 192 0.0 0.0 0.00 0.00 0.00 85 1000.9
20260902030302 78 192 0.0 0.0 0.00 0.00 0.00 86 1001.0
20260902025801 79 192 0.0 0.0 0.00 0.00 0.00 85 1000.6
20260902025257 79 192 0.0 0.0 0.00 0.00 0.00 85 1000.9
20260902024750 79 192 0.0 0.0 0.00 0.00 0.00 85 1000.9
20260902024246 79 192 0.0 0.0 0.00 0.00 0.00 85 1001.1
20260902023742 78 192 0.0 0.0 0.00 0.00 0.00 87 1001.0
20260902023237 78 192 0.0 0.0 0.00 0.00 0.00 86 1001.0
20260902022736 79 192 0.0 0.0 0.00 0.00 0.00 85 1000.9
20260902022232 79 192 0.0 0.0 0.00 0.00 0.00 85 1001.0
20260902021727 79 192 0.0 0.0 0.00 0.00 0.00 85 1000.9
20260902021227 79 192 0.0 0.0 0.00 0.00 0.00 85 1001.1
20260902020724 79 192 0.0 0.0 0.00 0.00 0.00 85 1001.0
20260902020219 79 192 0.0 0.0 0.00 0.00 0.00 84 1000.9
20260902015714 80 192 0.0 0.0 0.00 0.00 0.00 84 1000.9
20260902015211 80 192 0.0 0.0 0.00 0.00 0.00 83 1000.9
20260902014706 80 192 0.0 0.0 0.00 0.00 0.00 83 1000.8
20260902014203 81 192 0.0 0.0 0.00 0.00 0.00 82 1000.8
20260902013701 81 192 0.0 0.0 0.00 0.00 0.00 82 1000.7
20260902013156 81 192 0.0 0.0 0.00 0.00 0.00 81 1000.7
20260902012652 81 192 0.0 0.0 0.00 0.00 0.00 81 1000.7
20260902012147 81 192 0.0 0.0 0.00 0.00 0.00 81 1000.6
20260902011643 81 191 0.0 0.0 0.00 0.00 0.00 81 1000.5
20260902011137 81 191 0.0 0.0 0.00 0.00 0.00 81 1000.6
20260902010636 82 191 0.0 0.0 0.00 0.00 0.00 80 1000.4
20260902010133 82 191 0.0 0.0 0.00 0.00 0.00 80 1000.5
20260902005630 82 191 0.0 0.0 0.00 0.00 0.00 80 1000.6
20260902005126 82 191 0.0 0.0 0.00 0.00 0.00 80 1000.4
20260902004626 82 191 0.0 0.0 0.00 0.00 0.00 79 1000.4
20260902004121 83 191 0.0 0.0 0.00 0.00 0.00 79 1000.4
20260902003616 83 191 0.0 0.0 0.00 0.00 0.00 78 1000.6
20260902003112 83 191 0.0 0.0 0.00 0.00 0.00 77 1000.4
20260902002607 84 191 0.0 0.0 0.00 0.00 0.00 76 1000.4
20260902002102 84 191 0.0 0.0 0.00 0.00 0.00 75 1000.5
20260902001556 85 191 0.0 0.0 0.00 0.00 0.00 74 1000.6
20260902001052 86 191 0.0 0.9 0.00 0.00 0.00 73 1000.4
20260902000546 86 191 0.0 0.9 0.00 0.00 0.00 72 1000.6
20260902000041 87 191 0.0 0.0 0.00 0.00 0.00 70 1000.4
20260901235536 87 191 0.9 0.9 0.00 0.00 0.00 69 1000.3
20260901235032 88 187 0.0 0.9 0.00 0.00 0.00 69 1000.5
20260901234530 88 197 0.9 0.9 0.00 0.00 0.00 68 1000.4
20260901234025 88 178 0.9 0.9 0.00 0.00 0.00 67 1000.7
20260901233520 89 185 0.0 0.9 0.00 0.00 0.00 66 1000.5
20260901233016 89 215 1.7 1.7 0.00 0.00 0.00 65 1000.5